Year,Month,Day,Hour,Minute,Value (Times are PST for temperature in C)
2009,07,27,00,00,16.20
2009,07,27,00,01,16.20
2009,07,27,00,02,16.20
2009,07,27,00,03,16.20
2009,07,27,00,04,16.20
2009,07,27,00,05,16.30
2009,07,27,00,06,16.30
2009,07,27,00,07,16.30
2009,07,27,00,08,16.30
2009,07,27,00,09,16.30
2009,07,27,00,10,16.30
2009,07,27,00,11,16.40
2009,07,27,00,12,16.40
2009,07,27,00,13,16.40
2009,07,27,00,14,16.40
2009,07,27,00,15,16.40
2009,07,27,00,16,16.40
2009,07,27,00,17,16.40
2009,07,27,00,18,16.40
2009,07,27,00,19,16.40
2009,07,27,00,20,16.40
2009,07,27,00,21,16.40
2009,07,27,00,22,16.40
2009,07,27,00,23,16.40
2009,07,27,00,24,16.40
2009,07,27,00,25,16.40
2009,07,27,00,26,16.40
2009,07,27,00,27,16.40
2009,07,27,00,28,16.40
2009,07,27,00,29,16.40
2009,07,27,00,30,16.40
2009,07,27,00,31,16.40
2009,07,27,00,32,16.40
2009,07,27,00,33,16.40
2009,07,27,00,34,16.40
2009,07,27,00,35,16.40
2009,07,27,00,36,16.40
2009,07,27,00,37,16.40
2009,07,27,00,38,16.40
2009,07,27,00,39,16.40
2009,07,27,00,40,16.40
2009,07,27,00,41,16.40
2009,07,27,00,42,16.40
2009,07,27,00,43,16.30
2009,07,27,00,44,16.30
2009,07,27,00,45,16.30
2009,07,27,00,46,16.30
2009,07,27,00,47,16.30
2009,07,27,00,48,16.30
2009,07,27,00,49,16.30
2009,07,27,00,50,16.40
2009,07,27,00,51,16.40
2009,07,27,00,52,16.40
2009,07,27,00,53,16.40
2009,07,27,00,54,16.40
2009,07,27,00,55,16.40
2009,07,27,00,56,16.40
2009,07,27,00,57,16.40
2009,07,27,00,58,16.40
2009,07,27,00,59,16.40
2009,07,27,01,00,16.40
2009,07,27,01,01,16.40
2009,07,27,01,02,16.40
2009,07,27,01,03,16.40
2009,07,27,01,04,16.40
2009,07,27,01,05,16.40
2009,07,27,01,06,16.40
2009,07,27,01,07,16.40
2009,07,27,01,08,16.40
2009,07,27,01,09,16.40
2009,07,27,01,10,16.40
2009,07,27,01,11,16.40
2009,07,27,01,12,16.40
2009,07,27,01,13,16.40
2009,07,27,01,14,16.40
2009,07,27,01,15,16.40
2009,07,27,01,16,16.40
2009,07,27,01,17,16.40
2009,07,27,01,18,16.40
2009,07,27,01,19,16.40
2009,07,27,01,20,16.40
2009,07,27,01,21,16.40
2009,07,27,01,22,16.40
2009,07,27,01,23,16.40
2009,07,27,01,24,16.40
2009,07,27,01,25,16.40
2009,07,27,01,26,16.40
2009,07,27,01,27,16.40
2009,07,27,01,28,16.40
2009,07,27,01,29,16.40
2009,07,27,01,30,16.40
2009,07,27,01,31,16.40
2009,07,27,01,32,16.40
2009,07,27,01,33,16.40
2009,07,27,01,34,16.40
2009,07,27,01,35,16.40
2009,07,27,01,36,16.40
2009,07,27,01,37,16.40
2009,07,27,01,38,16.40
2009,07,27,01,39,16.50
2009,07,27,01,40,16.60
2009,07,27,01,41,16.60
2009,07,27,01,42,16.60
2009,07,27,01,43,16.60
2009,07,27,01,44,16.60
2009,07,27,01,45,16.60
2009,07,27,01,46,16.60
2009,07,27,01,47,16.60
2009,07,27,01,48,16.60
2009,07,27,01,49,16.40
2009,07,27,01,50,16.40
2009,07,27,01,51,16.40
2009,07,27,01,52,16.40
2009,07,27,01,53,16.30
2009,07,27,01,54,16.20
2009,07,27,01,55,16.10
2009,07,27,01,56,16.10
2009,07,27,01,57,16.00
2009,07,27,01,58,15.90
2009,07,27,01,59,15.80
2009,07,27,02,00,15.80
2009,07,27,02,01,15.70
2009,07,27,02,02,15.70
2009,07,27,02,03,15.60
2009,07,27,02,04,15.60
2009,07,27,02,05,15.60
2009,07,27,02,06,15.50
2009,07,27,02,07,15.50
2009,07,27,02,08,15.50
2009,07,27,02,09,15.50
2009,07,27,02,10,15.50
2009,07,27,02,11,15.50
2009,07,27,02,12,15.50
2009,07,27,02,13,15.50
2009,07,27,02,14,15.50
2009,07,27,02,15,15.50
2009,07,27,02,16,15.50
2009,07,27,02,17,15.40
2009,07,27,02,18,15.40
2009,07,27,02,19,15.40
2009,07,27,02,20,15.40
2009,07,27,02,21,15.40
2009,07,27,02,22,15.30
2009,07,27,02,23,15.30
2009,07,27,02,24,15.30
2009,07,27,02,25,15.30
2009,07,27,02,26,15.30
2009,07,27,02,27,15.30
2009,07,27,02,28,15.30
2009,07,27,02,29,15.30
2009,07,27,02,30,15.20
2009,07,27,02,31,15.20
2009,07,27,02,32,15.20
2009,07,27,02,33,15.20
2009,07,27,02,34,15.20
2009,07,27,02,35,15.20
2009,07,27,02,36,15.10
2009,07,27,02,37,15.10
2009,07,27,02,38,15.10
2009,07,27,02,39,15.10
2009,07,27,02,40,15.10
2009,07,27,02,41,15.00
2009,07,27,02,42,15.00
2009,07,27,02,43,15.00
2009,07,27,02,44,14.90
2009,07,27,02,45,14.90
2009,07,27,02,46,14.80
2009,07,27,02,47,14.80
2009,07,27,02,48,14.80
2009,07,27,02,49,14.80
2009,07,27,02,50,14.80
2009,07,27,02,51,14.80
2009,07,27,02,52,14.80
2009,07,27,02,53,14.80
2009,07,27,02,54,14.70
2009,07,27,02,55,14.60
2009,07,27,02,56,14.60
2009,07,27,02,57,14.60
2009,07,27,02,58,14.50
2009,07,27,02,59,14.50
2009,07,27,03,00,14.40
2009,07,27,03,01,14.30
2009,07,27,03,02,14.30
2009,07,27,03,03,14.20
2009,07,27,03,04,14.20
2009,07,27,03,05,14.20
2009,07,27,03,06,14.20
2009,07,27,03,07,14.20
2009,07,27,03,08,14.20
2009,07,27,03,09,14.20
2009,07,27,03,10,14.10
2009,07,27,03,11,14.10
2009,07,27,03,12,14.10
2009,07,27,03,13,14.00
2009,07,27,03,14,14.00
2009,07,27,03,15,14.00
2009,07,27,03,16,14.00
2009,07,27,03,17,13.90
2009,07,27,03,18,13.90
2009,07,27,03,19,13.90
2009,07,27,03,20,13.90
2009,07,27,03,21,13.90
2009,07,27,03,22,13.80
2009,07,27,03,23,13.80
2009,07,27,03,24,13.80
2009,07,27,03,25,13.80
2009,07,27,03,26,13.80
2009,07,27,03,27,13.80
2009,07,27,03,28,13.80
2009,07,27,03,29,13.80
2009,07,27,03,30,13.80
2009,07,27,03,31,13.80
2009,07,27,03,32,13.80
2009,07,27,03,33,13.80
2009,07,27,03,34,13.80
2009,07,27,03,35,13.80
2009,07,27,03,36,13.80
2009,07,27,03,37,13.90
2009,07,27,03,38,13.90
2009,07,27,03,39,13.90
2009,07,27,03,40,13.90
2009,07,27,03,41,13.90
2009,07,27,03,42,13.90
2009,07,27,03,43,13.90
2009,07,27,03,44,13.90
2009,07,27,03,45,13.90
2009,07,27,03,46,13.90
2009,07,27,03,47,13.90
2009,07,27,03,48,13.90
2009,07,27,03,49,13.90
2009,07,27,03,50,13.90
2009,07,27,03,51,13.90
2009,07,27,03,52,13.90
2009,07,27,03,53,13.90
2009,07,27,03,54,13.90
2009,07,27,03,55,14.00
2009,07,27,03,56,14.00
2009,07,27,03,57,14.00
2009,07,27,03,58,14.00
2009,07,27,03,59,14.00
2009,07,27,04,00,14.00
2009,07,27,04,01,14.00
2009,07,27,04,02,14.00
2009,07,27,04,03,14.00
2009,07,27,04,04,14.00
2009,07,27,04,05,14.00
2009,07,27,04,06,14.00
2009,07,27,04,07,14.10
2009,07,27,04,08,14.10
2009,07,27,04,09,14.10
2009,07,27,04,10,14.20
2009,07,27,04,11,14.20
2009,07,27,04,12,14.20
2009,07,27,04,13,14.20
2009,07,27,04,14,14.20
2009,07,27,04,15,14.20
2009,07,27,04,16,14.20
2009,07,27,04,17,14.30
2009,07,27,04,18,14.30
2009,07,27,04,19,14.30
2009,07,27,04,20,14.40
2009,07,27,04,21,14.40
2009,07,27,04,22,14.40
2009,07,27,04,23,14.40
2009,07,27,04,24,14.40
2009,07,27,04,25,14.50
2009,07,27,04,26,14.50
2009,07,27,04,27,14.50
2009,07,27,04,28,14.50
2009,07,27,04,29,14.60
2009,07,27,04,30,14.60
2009,07,27,04,31,14.60
2009,07,27,04,32,14.60
2009,07,27,04,33,14.70
2009,07,27,04,34,14.70
2009,07,27,04,35,14.70
2009,07,27,04,36,14.70
2009,07,27,04,37,14.70
2009,07,27,04,38,14.70
2009,07,27,04,39,14.70
2009,07,27,04,40,14.70
2009,07,27,04,41,14.70
2009,07,27,04,42,14.80
2009,07,27,04,43,14.80
2009,07,27,04,44,14.80
2009,07,27,04,45,14.80
2009,07,27,04,46,14.80
2009,07,27,04,47,14.80
2009,07,27,04,48,14.80
2009,07,27,04,49,14.80
2009,07,27,04,50,14.70
2009,07,27,04,51,14.70
2009,07,27,04,52,14.70
2009,07,27,04,53,14.70
2009,07,27,04,54,14.70
2009,07,27,04,55,14.70
2009,07,27,04,56,14.70
2009,07,27,04,57,14.70
2009,07,27,04,58,14.70
2009,07,27,04,59,14.70
2009,07,27,05,00,14.70
2009,07,27,05,01,14.70
2009,07,27,05,02,14.70
2009,07,27,05,03,14.70
2009,07,27,05,04,14.60
2009,07,27,05,05,14.60
2009,07,27,05,06,14.60
2009,07,27,05,07,14.70
2009,07,27,05,08,14.70
2009,07,27,05,09,14.70
2009,07,27,05,10,14.70
2009,07,27,05,11,14.70
2009,07,27,05,12,14.70
2009,07,27,05,13,14.70
2009,07,27,05,14,14.70
2009,07,27,05,15,14.70
2009,07,27,05,16,14.70
2009,07,27,05,17,14.70
2009,07,27,05,18,14.70
2009,07,27,05,19,14.70
2009,07,27,05,20,14.70
2009,07,27,05,21,14.70
2009,07,27,05,22,14.70
2009,07,27,05,23,14.70
2009,07,27,05,24,14.70
2009,07,27,05,25,14.70
2009,07,27,05,26,14.70
2009,07,27,05,27,14.80
2009,07,27,05,28,14.80
2009,07,27,05,29,14.80
2009,07,27,05,30,14.80
2009,07,27,05,31,14.80
2009,07,27,05,32,14.80
2009,07,27,05,33,14.80
2009,07,27,05,34,14.80
2009,07,27,05,35,14.90
2009,07,27,05,36,14.90
2009,07,27,05,37,14.90
2009,07,27,05,38,14.90
2009,07,27,05,39,15.00
2009,07,27,05,40,15.00
2009,07,27,05,41,15.00
2009,07,27,05,42,15.00
2009,07,27,05,43,15.10
2009,07,27,05,44,15.10
2009,07,27,05,45,15.10
2009,07,27,05,46,15.10
2009,07,27,05,47,15.10
2009,07,27,05,48,15.20
2009,07,27,05,49,15.20
2009,07,27,05,50,15.20
2009,07,27,05,51,15.30
2009,07,27,05,52,15.30
2009,07,27,05,53,15.30
2009,07,27,05,54,15.30
2009,07,27,05,55,15.30
2009,07,27,05,56,15.30
2009,07,27,05,57,15.40
2009,07,27,05,58,15.40
2009,07,27,05,59,15.40
2009,07,27,06,00,15.40
2009,07,27,06,01,15.50
2009,07,27,06,02,15.50
2009,07,27,06,03,15.50
2009,07,27,06,04,15.50
2009,07,27,06,05,15.50
2009,07,27,06,06,15.60
2009,07,27,06,07,15.60
2009,07,27,06,08,15.60
2009,07,27,06,09,15.60
2009,07,27,06,10,15.70
2009,07,27,06,11,15.70
2009,07,27,06,12,15.70
2009,07,27,06,13,15.80
2009,07,27,06,14,15.80
2009,07,27,06,15,15.80
2009,07,27,06,16,15.80
2009,07,27,06,17,15.80
2009,07,27,06,18,15.80
2009,07,27,06,19,15.90
2009,07,27,06,20,15.90
2009,07,27,06,21,15.90
2009,07,27,06,22,16.00
2009,07,27,06,23,16.10
2009,07,27,06,24,16.10
2009,07,27,06,25,16.10
2009,07,27,06,26,16.10
2009,07,27,06,27,16.20
2009,07,27,06,28,16.20
2009,07,27,06,29,16.20
2009,07,27,06,30,16.30
2009,07,27,06,31,16.30
2009,07,27,06,32,16.30
2009,07,27,06,33,16.40
2009,07,27,06,34,16.40
2009,07,27,06,35,16.40
2009,07,27,06,36,16.50
2009,07,27,06,37,16.60
2009,07,27,06,38,16.60
2009,07,27,06,39,16.70
2009,07,27,06,40,16.70
2009,07,27,06,41,16.70
2009,07,27,06,42,16.80
2009,07,27,06,43,16.80
2009,07,27,06,44,16.90
2009,07,27,06,45,16.90
2009,07,27,06,46,17.00
2009,07,27,06,47,17.00
2009,07,27,06,48,17.10
2009,07,27,06,49,17.10
2009,07,27,06,50,17.20
2009,07,27,06,51,17.20
2009,07,27,06,52,17.30
2009,07,27,06,53,17.30
2009,07,27,06,54,17.30
2009,07,27,06,55,17.40
2009,07,27,06,56,17.50
2009,07,27,06,57,17.50
2009,07,27,06,58,17.60
2009,07,27,06,59,17.70
2009,07,27,07,00,17.80
2009,07,27,07,01,17.80
2009,07,27,07,02,17.90
2009,07,27,07,03,18.00
2009,07,27,07,04,18.10
2009,07,27,07,05,18.20
2009,07,27,07,06,18.20
2009,07,27,07,07,18.30
2009,07,27,07,08,18.30
2009,07,27,07,09,18.40
2009,07,27,07,10,18.40
2009,07,27,07,11,18.50
2009,07,27,07,12,18.50
2009,07,27,07,13,18.50
2009,07,27,07,14,18.60
2009,07,27,07,15,18.60
2009,07,27,07,16,18.60
2009,07,27,07,17,18.70
2009,07,27,07,18,18.70
2009,07,27,07,19,18.70
2009,07,27,07,20,18.80
2009,07,27,07,21,18.90
2009,07,27,07,22,18.90
2009,07,27,07,23,18.90
2009,07,27,07,24,18.90
2009,07,27,07,25,18.80
2009,07,27,07,26,18.80
2009,07,27,07,27,18.70
2009,07,27,07,28,18.70
2009,07,27,07,29,18.70
2009,07,27,07,30,18.60
2009,07,27,07,31,18.50
2009,07,27,07,32,18.50
2009,07,27,07,33,18.40
2009,07,27,07,34,18.50
2009,07,27,07,35,18.50
2009,07,27,07,36,18.40
2009,07,27,07,37,18.40
2009,07,27,07,38,18.40
2009,07,27,07,39,18.40
2009,07,27,07,40,18.50
2009,07,27,07,41,18.50
2009,07,27,07,42,18.50
2009,07,27,07,43,18.60
2009,07,27,07,44,18.60
2009,07,27,07,45,18.70
2009,07,27,07,46,18.70
2009,07,27,07,47,18.80
2009,07,27,07,48,18.90
2009,07,27,07,49,18.90
2009,07,27,07,50,18.90
2009,07,27,07,51,18.90
2009,07,27,07,52,18.90
2009,07,27,07,53,18.90
2009,07,27,07,54,18.90
2009,07,27,07,55,18.90
2009,07,27,07,56,18.90
2009,07,27,07,57,18.90
2009,07,27,07,58,18.90
2009,07,27,07,59,19.00
2009,07,27,08,00,19.10
2009,07,27,08,01,19.10
2009,07,27,08,02,19.10
2009,07,27,08,03,19.20
2009,07,27,08,04,19.30
2009,07,27,08,05,19.40
2009,07,27,08,06,19.50
2009,07,27,08,07,19.60
2009,07,27,08,08,19.80
2009,07,27,08,09,20.00
2009,07,27,08,10,20.20
2009,07,27,08,11,20.40
2009,07,27,08,12,20.60
2009,07,27,08,13,20.80
2009,07,27,08,14,20.90
2009,07,27,08,15,21.00
2009,07,27,08,16,21.10
2009,07,27,08,17,21.20
2009,07,27,08,18,21.30
2009,07,27,08,19,21.30
2009,07,27,08,20,21.50
2009,07,27,08,21,21.60
2009,07,27,08,22,21.60
2009,07,27,08,23,21.80
2009,07,27,08,24,21.90
2009,07,27,08,25,22.00
2009,07,27,08,26,22.20
2009,07,27,08,27,22.30
2009,07,27,08,28,22.50
2009,07,27,08,29,22.60
2009,07,27,08,30,22.60
2009,07,27,08,31,22.70
2009,07,27,08,32,22.80
2009,07,27,08,33,22.90
2009,07,27,08,34,22.90
2009,07,27,08,35,23.00
2009,07,27,08,36,22.90
2009,07,27,08,37,22.90
2009,07,27,08,38,22.90
2009,07,27,08,39,22.90
2009,07,27,08,40,22.90
2009,07,27,08,41,22.90
2009,07,27,08,42,22.80
2009,07,27,08,43,22.80
2009,07,27,08,44,22.80
2009,07,27,08,45,22.80
2009,07,27,08,46,22.80
2009,07,27,08,47,22.80
2009,07,27,08,48,22.80
2009,07,27,08,49,22.80
2009,07,27,08,50,22.80
2009,07,27,08,51,22.80
2009,07,27,08,52,22.80
2009,07,27,08,53,22.90
2009,07,27,08,54,22.90
2009,07,27,08,55,23.10
2009,07,27,08,56,23.20
2009,07,27,08,57,23.20
2009,07,27,08,58,23.30
2009,07,27,08,59,23.40
2009,07,27,09,00,23.50
2009,07,27,09,01,23.60
2009,07,27,09,02,23.70
2009,07,27,09,03,23.80
2009,07,27,09,04,24.00
2009,07,27,09,05,24.10
2009,07,27,09,06,24.30
2009,07,27,09,07,24.40
2009,07,27,09,08,24.50
2009,07,27,09,09,24.60
2009,07,27,09,10,24.70
2009,07,27,09,11,24.80
2009,07,27,09,12,24.90
2009,07,27,09,13,25.00
2009,07,27,09,14,25.10
2009,07,27,09,15,25.10
2009,07,27,09,16,25.20
2009,07,27,09,17,25.20
2009,07,27,09,18,25.30
2009,07,27,09,19,25.30
2009,07,27,09,20,25.30
2009,07,27,09,21,25.30
2009,07,27,09,22,25.40
2009,07,27,09,23,25.40
2009,07,27,09,24,25.50
2009,07,27,09,25,25.50
2009,07,27,09,26,25.60
2009,07,27,09,27,25.70
2009,07,27,09,28,25.70
2009,07,27,09,29,25.60
2009,07,27,09,30,25.30
2009,07,27,09,31,24.90
2009,07,27,09,32,24.60
2009,07,27,09,33,24.20
2009,07,27,09,34,23.80
2009,07,27,09,35,23.40
2009,07,27,09,36,23.10
2009,07,27,09,37,22.90
2009,07,27,09,38,22.70
2009,07,27,09,39,22.60
2009,07,27,09,40,22.50
2009,07,27,09,41,22.30
2009,07,27,09,42,22.20
2009,07,27,09,43,22.10
2009,07,27,09,44,22.00
2009,07,27,09,45,22.00
2009,07,27,09,46,22.00
2009,07,27,09,47,22.00
2009,07,27,09,48,22.00
2009,07,27,09,49,22.00
2009,07,27,09,50,22.10
2009,07,27,09,51,22.20
2009,07,27,09,52,22.30
2009,07,27,09,53,22.40
2009,07,27,09,54,22.50
2009,07,27,09,55,22.50
2009,07,27,09,56,22.50
2009,07,27,09,57,22.60
2009,07,27,09,58,22.70
2009,07,27,09,59,22.80
2009,07,27,10,00,22.90
2009,07,27,10,01,23.00
2009,07,27,10,02,23.20
2009,07,27,10,03,23.40
2009,07,27,10,04,23.50
2009,07,27,10,05,23.70
2009,07,27,10,06,23.80
2009,07,27,10,07,24.00
2009,07,27,10,08,24.10
2009,07,27,10,09,24.40
2009,07,27,10,10,24.50
2009,07,27,10,11,24.60
2009,07,27,10,12,24.60
2009,07,27,10,13,24.50
2009,07,27,10,14,24.50
2009,07,27,10,15,24.50
2009,07,27,10,16,24.50
2009,07,27,10,17,24.70
2009,07,27,10,18,24.80
2009,07,27,10,19,25.10
2009,07,27,10,20,25.30
2009,07,27,10,21,25.40
2009,07,27,10,22,25.60
2009,07,27,10,23,25.80
2009,07,27,10,24,25.90
2009,07,27,10,25,26.00
2009,07,27,10,26,26.10
2009,07,27,10,27,26.10
2009,07,27,10,28,26.10
2009,07,27,10,29,26.00
2009,07,27,10,30,26.00
2009,07,27,10,31,26.10
2009,07,27,10,32,26.20
2009,07,27,10,33,26.30
2009,07,27,10,34,26.40
2009,07,27,10,35,26.50
2009,07,27,10,36,26.60
2009,07,27,10,37,26.70
2009,07,27,10,38,26.80
2009,07,27,10,39,26.90
2009,07,27,10,40,26.90
2009,07,27,10,41,26.90
2009,07,27,10,42,27.00
2009,07,27,10,43,27.10
2009,07,27,10,44,27.10
2009,07,27,10,45,27.10
2009,07,27,10,46,27.10
2009,07,27,10,47,27.00
2009,07,27,10,48,26.90
2009,07,27,10,49,27.00
2009,07,27,10,50,27.10
2009,07,27,10,51,27.10
2009,07,27,10,52,27.20
2009,07,27,10,53,27.20
2009,07,27,10,54,27.30
2009,07,27,10,55,27.30
2009,07,27,10,56,27.30
2009,07,27,10,57,27.30
2009,07,27,10,58,27.30
2009,07,27,10,59,27.30
2009,07,27,11,00,27.30
2009,07,27,11,01,27.40
2009,07,27,11,02,27.40
2009,07,27,11,03,27.40
2009,07,27,11,04,27.50
2009,07,27,11,05,27.60
2009,07,27,11,06,27.70
2009,07,27,11,07,27.70
2009,07,27,11,08,27.80
2009,07,27,11,09,27.80
2009,07,27,11,10,27.80
2009,07,27,11,11,27.90
2009,07,27,11,12,27.90
2009,07,27,11,13,27.80
2009,07,27,11,14,27.70
2009,07,27,11,15,27.70
2009,07,27,11,16,27.80
2009,07,27,11,17,27.80
2009,07,27,11,18,27.80
2009,07,27,11,19,27.70
2009,07,27,11,20,27.60
2009,07,27,11,21,27.70
2009,07,27,11,22,27.70
2009,07,27,11,23,27.80
2009,07,27,11,24,27.80
2009,07,27,11,25,27.90
2009,07,27,11,26,27.90
2009,07,27,11,27,27.90
2009,07,27,11,28,27.80
2009,07,27,11,29,27.80
2009,07,27,11,30,27.80
2009,07,27,11,31,27.90
2009,07,27,11,32,27.90
2009,07,27,11,33,27.90
2009,07,27,11,34,28.00
2009,07,27,11,35,28.00
2009,07,27,11,36,28.10
2009,07,27,11,37,28.00
2009,07,27,11,38,27.70
2009,07,27,11,39,27.40
2009,07,27,11,40,27.10
2009,07,27,11,41,26.70
2009,07,27,11,42,26.40
2009,07,27,11,43,26.00
2009,07,27,11,44,25.60
2009,07,27,11,45,25.40
2009,07,27,11,46,25.10
2009,07,27,11,47,24.90
2009,07,27,11,48,24.80
2009,07,27,11,49,24.80
2009,07,27,11,50,24.80
2009,07,27,11,51,24.90
2009,07,27,11,52,25.00
2009,07,27,11,53,25.10
2009,07,27,11,54,25.10
2009,07,27,11,55,25.10
2009,07,27,11,56,25.00
2009,07,27,11,57,25.00
2009,07,27,11,58,24.90
2009,07,27,11,59,24.90
2009,07,27,12,00,24.80
2009,07,27,12,01,24.80
2009,07,27,12,02,24.90
2009,07,27,12,03,25.00
2009,07,27,12,04,25.20
2009,07,27,12,05,25.30
2009,07,27,12,06,25.40
2009,07,27,12,07,25.60
2009,07,27,12,08,25.70
2009,07,27,12,09,25.90
2009,07,27,12,10,25.90
2009,07,27,12,11,25.90
2009,07,27,12,12,26.00
2009,07,27,12,13,26.10
2009,07,27,12,14,26.20
2009,07,27,12,15,26.20
2009,07,27,12,16,26.20
2009,07,27,12,17,26.20
2009,07,27,12,18,26.10
2009,07,27,12,19,26.00
2009,07,27,12,20,26.00
2009,07,27,12,21,26.10
2009,07,27,12,22,26.10
2009,07,27,12,23,26.10
2009,07,27,12,24,26.30
2009,07,27,12,25,26.40
2009,07,27,12,26,26.50
2009,07,27,12,27,26.40
2009,07,27,12,28,26.30
2009,07,27,12,29,26.10
2009,07,27,12,30,26.00
2009,07,27,12,31,26.00
2009,07,27,12,32,26.10
2009,07,27,12,33,26.20
2009,07,27,12,34,26.20
2009,07,27,12,35,26.20
2009,07,27,12,36,26.20
2009,07,27,12,37,26.30
2009,07,27,12,38,26.30
2009,07,27,12,39,26.30
2009,07,27,12,40,26.40
2009,07,27,12,41,26.50
2009,07,27,12,42,26.70
2009,07,27,12,43,26.80
2009,07,27,12,44,26.80
2009,07,27,12,45,26.90
2009,07,27,12,46,26.90
2009,07,27,12,47,26.90
2009,07,27,12,48,26.80
2009,07,27,12,49,26.90
2009,07,27,12,50,27.00
2009,07,27,12,51,27.10
2009,07,27,12,52,27.10
2009,07,27,12,53,27.10
2009,07,27,12,54,27.20
2009,07,27,12,55,27.30
2009,07,27,12,56,27.40
2009,07,27,12,57,27.50
2009,07,27,12,58,27.60
2009,07,27,12,59,27.70
2009,07,27,13,00,27.80
2009,07,27,13,01,27.90
2009,07,27,13,02,28.00
2009,07,27,13,03,28.10
2009,07,27,13,04,28.10
2009,07,27,13,05,28.00
2009,07,27,13,06,28.00
2009,07,27,13,07,28.10
2009,07,27,13,08,28.10
2009,07,27,13,09,28.20
2009,07,27,13,10,28.20
2009,07,27,13,11,28.20
2009,07,27,13,12,28.30
2009,07,27,13,13,28.20
2009,07,27,13,14,28.00
2009,07,27,13,15,27.80
2009,07,27,13,16,27.50
2009,07,27,13,17,27.40
2009,07,27,13,18,27.30
2009,07,27,13,19,27.30
2009,07,27,13,20,27.30
2009,07,27,13,21,27.30
2009,07,27,13,22,27.30
2009,07,27,13,23,27.30
2009,07,27,13,24,27.30
2009,07,27,13,25,27.10
2009,07,27,13,26,27.00
2009,07,27,13,27,26.80
2009,07,27,13,28,26.80
2009,07,27,13,29,26.80
2009,07,27,13,30,26.90
2009,07,27,13,31,26.90
2009,07,27,13,32,27.00
2009,07,27,13,33,27.20
2009,07,27,13,34,27.30
2009,07,27,13,35,27.30
2009,07,27,13,36,27.40
2009,07,27,13,37,27.50
2009,07,27,13,38,27.60
2009,07,27,13,39,27.60
2009,07,27,13,40,27.70
2009,07,27,13,41,27.90
2009,07,27,13,42,27.90
2009,07,27,13,43,28.00
2009,07,27,13,44,28.10
2009,07,27,13,45,28.10
2009,07,27,13,46,28.10
2009,07,27,13,47,28.10
2009,07,27,13,48,28.00
2009,07,27,13,49,27.90
2009,07,27,13,50,27.80
2009,07,27,13,51,27.80
2009,07,27,13,52,27.80
2009,07,27,13,53,27.70
2009,07,27,13,54,27.80
2009,07,27,13,55,27.70
2009,07,27,13,56,27.60
2009,07,27,13,57,27.40
2009,07,27,13,58,27.30
2009,07,27,13,59,27.20
2009,07,27,14,00,27.10
2009,07,27,14,01,27.00
2009,07,27,14,02,26.90
2009,07,27,14,03,27.00
2009,07,27,14,04,27.10
2009,07,27,14,05,27.20
2009,07,27,14,06,27.30
2009,07,27,14,07,27.30
2009,07,27,14,08,27.30
2009,07,27,14,09,27.30
2009,07,27,14,10,27.40
2009,07,27,14,11,27.50
2009,07,27,14,12,27.60
2009,07,27,14,13,27.70
2009,07,27,14,14,27.80
2009,07,27,14,15,27.90
2009,07,27,14,16,28.00
2009,07,27,14,17,28.10
2009,07,27,14,18,28.20
2009,07,27,14,19,28.20
2009,07,27,14,20,28.20
2009,07,27,14,21,28.00
2009,07,27,14,22,28.00
2009,07,27,14,23,27.80
2009,07,27,14,24,27.70
2009,07,27,14,25,27.70
2009,07,27,14,26,27.60
2009,07,27,14,27,27.70
2009,07,27,14,28,27.80
2009,07,27,14,29,27.80
2009,07,27,14,30,27.80
2009,07,27,14,31,27.80
2009,07,27,14,32,27.80
2009,07,27,14,33,27.80
2009,07,27,14,34,27.70
2009,07,27,14,35,27.70
2009,07,27,14,36,27.80
2009,07,27,14,37,27.90
2009,07,27,14,38,28.10
2009,07,27,14,39,28.30
2009,07,27,14,40,28.40
2009,07,27,14,41,28.50
2009,07,27,14,42,28.50
2009,07,27,14,43,28.30
2009,07,27,14,44,28.30
2009,07,27,14,45,28.30
2009,07,27,14,46,28.30
2009,07,27,14,47,28.30
2009,07,27,14,48,28.40
2009,07,27,14,49,28.60
2009,07,27,14,50,28.60
2009,07,27,14,51,28.60
2009,07,27,14,52,28.50
2009,07,27,14,53,28.50
2009,07,27,14,54,28.60
2009,07,27,14,55,28.50
2009,07,27,14,56,28.60
2009,07,27,14,57,28.60
2009,07,27,14,58,28.50
2009,07,27,14,59,28.30
2009,07,27,15,00,28.20
2009,07,27,15,01,28.10
2009,07,27,15,02,28.10
2009,07,27,15,03,28.10
2009,07,27,15,04,28.20
2009,07,27,15,05,28.10
2009,07,27,15,06,28.10
2009,07,27,15,07,28.00
2009,07,27,15,08,28.00
2009,07,27,15,09,28.00
2009,07,27,15,10,27.90
2009,07,27,15,11,27.90
2009,07,27,15,12,27.90
2009,07,27,15,13,27.90
2009,07,27,15,14,27.90
2009,07,27,15,15,28.00
2009,07,27,15,16,28.10
2009,07,27,15,17,28.10
2009,07,27,15,18,28.20
2009,07,27,15,19,28.20
2009,07,27,15,20,28.30
2009,07,27,15,21,28.40
2009,07,27,15,22,28.40
2009,07,27,15,23,28.40
2009,07,27,15,24,28.60
2009,07,27,15,25,28.50
2009,07,27,15,26,28.40
2009,07,27,15,27,28.30
2009,07,27,15,28,28.10
2009,07,27,15,29,27.90
2009,07,27,15,30,27.80
2009,07,27,15,31,27.60
2009,07,27,15,32,27.40
2009,07,27,15,33,27.40
2009,07,27,15,34,27.40
2009,07,27,15,35,27.40
2009,07,27,15,36,27.30
2009,07,27,15,37,27.20
2009,07,27,15,38,27.30
2009,07,27,15,39,27.30
2009,07,27,15,40,27.40
2009,07,27,15,41,27.40
2009,07,27,15,42,27.30
2009,07,27,15,43,27.30
2009,07,27,15,44,27.30
2009,07,27,15,45,27.30
2009,07,27,15,46,27.30
2009,07,27,15,47,27.30
2009,07,27,15,48,27.30
2009,07,27,15,49,27.30
2009,07,27,15,50,27.40
2009,07,27,15,51,27.50
2009,07,27,15,52,27.60
2009,07,27,15,53,27.70
2009,07,27,15,54,27.80
2009,07,27,15,55,27.90
2009,07,27,15,56,28.10
2009,07,27,15,57,28.10
2009,07,27,15,58,28.20
2009,07,27,15,59,28.30
2009,07,27,16,00,28.40
2009,07,27,16,01,28.50
2009,07,27,16,02,28.60
2009,07,27,16,03,28.80
2009,07,27,16,04,28.90
2009,07,27,16,05,29.00
2009,07,27,16,06,29.10
2009,07,27,16,07,29.10
2009,07,27,16,08,29.10
2009,07,27,16,09,29.10
2009,07,27,16,10,28.90
2009,07,27,16,11,28.80
2009,07,27,16,12,28.60
2009,07,27,16,13,28.60
2009,07,27,16,14,28.50
2009,07,27,16,15,28.40
2009,07,27,16,16,28.50
2009,07,27,16,17,28.40
2009,07,27,16,18,28.40
2009,07,27,16,19,28.30
2009,07,27,16,20,28.30
2009,07,27,16,21,28.30
2009,07,27,16,22,28.40
2009,07,27,16,23,28.40
2009,07,27,16,24,28.60
2009,07,27,16,25,28.50
2009,07,27,16,26,28.50
2009,07,27,16,27,28.60
2009,07,27,16,28,28.70
2009,07,27,16,29,28.80
2009,07,27,16,30,28.90
2009,07,27,16,31,28.90
2009,07,27,16,32,29.10
2009,07,27,16,33,29.20
2009,07,27,16,34,29.40
2009,07,27,16,35,29.40
2009,07,27,16,36,29.50
2009,07,27,16,37,29.50
2009,07,27,16,38,29.60
2009,07,27,16,39,29.60
2009,07,27,16,40,29.70
2009,07,27,16,41,29.70
2009,07,27,16,42,29.70
2009,07,27,16,43,29.50
2009,07,27,16,44,29.40
2009,07,27,16,45,29.50
2009,07,27,16,46,29.60
2009,07,27,16,47,29.80
2009,07,27,16,48,30.00
2009,07,27,16,49,30.10
2009,07,27,16,50,30.20
2009,07,27,16,51,30.20
2009,07,27,16,52,30.40
2009,07,27,16,53,30.50
2009,07,27,16,54,30.70
2009,07,27,16,55,30.90
2009,07,27,16,56,31.00
2009,07,27,16,57,31.20
2009,07,27,16,58,31.20
2009,07,27,16,59,31.20
2009,07,27,17,00,31.20
2009,07,27,17,01,31.20
2009,07,27,17,02,31.30
2009,07,27,17,03,31.30
2009,07,27,17,04,31.40
2009,07,27,17,05,31.50
2009,07,27,17,06,31.60
2009,07,27,17,07,31.60
2009,07,27,17,08,31.60
2009,07,27,17,09,31.60
2009,07,27,17,10,31.50
2009,07,27,17,11,31.40
2009,07,27,17,12,31.40
2009,07,27,17,13,31.30
2009,07,27,17,14,31.30
2009,07,27,17,15,31.30
2009,07,27,17,16,31.30
2009,07,27,17,17,31.30
2009,07,27,17,18,31.30
2009,07,27,17,19,31.20